Location: A�t �Alizem
(31.2076°N, 8.7872°W)
Time: 14:04:12
(UTC+00:00)

USA 281 - Pass Details

Date: 27 November 2020
Orbit: 1074 x 1084 km, 106.0° (Epoch: 22 January)

Event Time Altitude Azimuth Distance (km) Brightness Sun altitude
Rises 18:50:45 0° 136° (SE) 3,872 5.9 -16.5°
Reaches altitude 10° 18:53:24 10° 129° (SE) 2,917 5.2 -17.1°
Maximum altitude 18:59:27 41° 62° (ENE) 1,516 3.5 -18.3°
Drops below altitude 10° 19:05:31 10° 355° (N) 2,923 5.4 -19.6°
Sets 19:08:10 0° 348° (NNW) 3,880 6.1 -20.1°
